RH
20 24 25 21 18 22 26 28 29 28 25 24 19 19 17 16 16 18 26 28 29 38 37 28 22 24 30 30 32 36 38 38 36 36 36 37 37 36 34 32 28 26 25
14 15 19 23 24 19 20 23 25 27 24 23 19 19 16 15 15 17 18 23 26 28 36 37 30 28 29 31 32 33 35 39 38 37 39 38 36 32 27 25 22 17 17
32 21 13 17 19 18 18 18 20 23 23 21 19 18 17 15 14 15 18 17 18 25 26 31 36 35 33 33 31 33 36 37 37 35 32 29 25 25 23 18 14 22 34
43 39 25 10 13 16 15 17 18 20 21 20 18 17 17 17 14 14 16 18 15 14 20 25 25 27 31 34 35 35 35 35 33 28 24 24 24 21 14 13 16 20 32
43 44 39 31 11 12 15 15 16 19 21 21 19 16 15 15 15 13 13 17 21 16 14 14 17 22 23 24 25 27 28 27 26 24 22 21 18 13 10 12 24 36 39
33 38 47 46 39 18 13 14 15 16 18 20 18 16 14 13 14 13 14 14 18 21 17 14 14 14 11 14 21 23 24 22 21 20 15 11 8 8 15 28 36 37 34
31 31 33 45 47 45 33 15 13 15 16 16 18 17 15 12 13 13 14 14 13 16 19 17 12 11 11 10 10 9 11 14 12 10 7 7 14 23 32 34 34 34 32
28 32 33 33 37 46 48 40 20 14 16 16 15 15 14 13 13 14 14 14 14 11 12 12 9 9 8 7 7 9 8 8 8 7 11 22 28 31 31 30 31 28 28
19 28 30 34 37 39 46 48 40 28 17 16 16 16 14 13 13 15 17 15 14 12 10 9 8 7 7 7 6 6 6 7 13 19 24 29 30 28 26 27 31 36 38
23 18 26 33 36 36 28 35 40 35 25 18 15 15 16 16 15 15 17 18 15 12 11 10 9 7 6 6 6 8 14 18 18 21 22 22 22 24 30 36 38 31 32
23 17 16 29 30 33 39 32 36 34 26 21 18 17 15 15 16 16 17 17 15 13 11 9 7 7 6 7 11 14 16 14 16 18 19 20 24 32 37 32 22 34 46
23 20 15 24 30 34 36 37 34 44 43 30 23 18 14 14 14 15 16 18 15 13 9 8 7 6 6 9 12 13 13 14 18 19 20 26 40 33 22 21 23 23 57
15 19 14 15 18 24 32 37 37 40 47 48 36 39 34 19 14 14 14 14 13 11 10 10 7 6 8 11 11 12 15 24 30 32 37 31 20 18 18 20 22 43 58
15 14 14 14 15 16 29 33 43 43 50 54 52 40 55 66 38 12 12 12 12 11 11 9 7 7 8 10 13 18 26 33 37 28 21 17 14 15 15 17 21 40 40
15 14 14 14 15 16 20 33 39 44 49 56 53 56 50 46 38 28 10 10 11 11 12 10 9 8 9 12 19 25 31 30 22 20 18 16 15 14 14 14 29 42 37
15 15 15 15 16 16 16 29 38 45 49 56 37 42 37 14 9 10 11 9 15 22 23 23 25 27 27 29 36 40 28 22 22 20 16 15 17 17 15 18 30 36 33
36 17 16 16 19 18 17 25 36 44 49 46 32 39 17 9 10 14 22 33 36 38 42 45 41 39 43 45 36 30 24 26 24 21 18 17 19 21 19 24 24 35 30
78 54 67 50 31 25 23 41 39 44 19 19 40 48 51 52 49 48 56 62 62 59 56 60 69 65 40 31 30 27 29 31 30 28 23 20 23 25 26 33 31 31 29
100 98 69 69 77 90 91 78 54 39 34 40 44 50 60 63 59 58 55 61 64 59 51 47 48 56 48 42 40 42 45 41 38 34 31 22 27 23 39 44 40 36 33
95 97 97 92 99 84 96 76 82 91 88 49 59 75 84 89 95 73 69 69 73 77 65 46 40 59 65 66 53 54 51 52 47 38 37 26 28 45 47 45 41 42 41
100 95 99 93 98 90 92 100 98 98 78 79 58 62 72 72 74 59 57 60 63 65 78 71 63 63 62 66 63 62 62 60 55 49 49 92 48 82 54 52 57 54 52
100 99 99 99 98 95 93 97 100 90 88 77 63 58 52 47 44 46 44 46 46 42 42 54 56 53 61 57 67 68 63 64 69 48 87 91 83 73 67 70 67 66 61
94 92 100 98 93 97 81 95 95 84 79 74 59 55 49 58 66 63 53 56 53 33 23 22 22 25 31 42 51 49 55 53 82 100 100 99 95 95 73 78 81 76 65
78 74 72 78 84 71 63 69 70 81 68 83 76 72 74 51 52 63 63 49 42 42 38 42 92 96 78 59 62 74 77 96 99 94 90 86 80 88 86 73 59 58 61
71 76 80 77 64 62 65 60 61 68 92 91 90 77 94 78 75 56 48 45 92 63 100 97 73 88 77 89 89 100 98 80 66 61 54 56 62 65 68 60 61 63 66
68 73 74 83 82 72 71 69 59 41 40 54 56 67 75 66 75 87 80 78 82 79 72 99 100 79 92 84 96 72 64 60 56 54 49 54 56 52 57 69 76 79 78
Wind_Speed
26 27 28 31 31 31 30 28 25 22 20 22 15 12 12 11 10 10 10 9 8 7 6 6 7 8 8 6 6 5 2 2 2 4 7 10 14 18 20 23 24 25 26
22 27 27 29 32 33 33 31 29 27 24 23 20 16 15 13 12 11 12 12 9 10 10 9 8 9 9 8 7 6 6 7 9 8 10 13 17 20 23 24 24 23 24
23 21 27 28 31 32 34 33 32 30 28 24 23 21 17 16 15 14 13 15 14 13 13 13 12 11 11 11 11 11 11 13 14 15 14 17 18 21 23 22 23 23 27
24 25 19 26 27 29 31 33 32 31 30 27 24 23 21 20 19 17 16 16 17 14 15 15 15 15 14 14 15 15 16 17 18 19 20 20 22 20 21 23 25 27 30
27 25 21 18 25 27 29 31 33 33 32 30 27 26 24 23 22 20 18 18 18 16 15 15 16 17 17 18 19 20 21 21 22 22 21 21 21 21 22 24 26 28 29
26 23 25 25 24 23 28 29 32 34 33 32 31 29 27 26 23 22 20 20 20 19 17 17 16 17 17 18 20 21 23 23 22 21 20 21 20 22 23 25 28 32 36
30 27 25 27 26 26 23 27 30 32 33 33 33 32 30 27 25 24 22 21 22 22 20 20 20 18 17 16 19 21 22 22 22 21 20 17 19 21 25 28 32 35 38
32 33 29 26 25 27 29 26 27 30 33 34 33 32 32 29 27 26 25 24 24 25 24 22 23 21 19 19 18 20 20 20 20 20 19 19 22 25 29 33 36 39 39
30 33 33 31 27 24 28 30 27 28 30 33 33 32 32 30 28 27 28 27 27 27 26 24 23 23 21 21 22 21 20 18 17 19 22 24 25 27 31 36 40 45 44
28 29 33 34 32 28 24 25 28 27 27 30 31 31 31 31 29 27 28 29 29 29 27 26 25 24 22 22 23 22 21 18 20 22 25 28 30 33 35 38 40 39 37
30 30 33 38 34 33 31 27 23 21 25 30 30 30 31 31 29 28 27 29 30 31 30 27 25 23 23 22 23 24 23 23 25 27 28 30 32 35 37 36 36 34 32
38 34 34 36 39 38 35 34 30 27 23 25 29 29 29 28 28 29 28 31 30 33 30 26 25 24 25 25 25 24 25 26 28 30 32 34 35 34 35 35 35 35 30
39 41 35 36 40 43 40 39 36 33 30 26 26 27 27 26 28 29 30 31 32 33 30 29 26 26 27 27 25 25 27 28 31 35 36 34 35 34 33 33 31 29 24
42 44 43 37 37 38 44 42 42 37 34 32 30 30 29 29 29 29 31 31 31 34 33 31 29 29 29 29 27 28 29 31 32 32 33 32 32 31 32 32 29 26 23
45 48 49 42 38 36 43 46 43 41 35 33 32 33 35 35 33 34 32 27 28 30 31 33 31 30 29 29 30 31 33 29 28 29 30 31 30 31 31 31 28 25 24
48 50 51 47 42 39 38 47 47 43 38 35 32 34 33 32 32 31 30 26 23 25 27 28 29 30 30 31 33 33 30 26 26 27 30 32 31 32 32 31 28 26 24
49 55 54 53 49 45 40 46 47 44 39 38 34 33 30 29 27 24 24 25 29 28 27 28 30 31 32 33 31 29 27 26 27 29 32 34 33 33 32 29 29 24 25
45 50 43 50 49 48 45 47 48 44 37 35 35 34 32 29 29 28 26 26 29 28 28 27 26 29 33 29 27 28 30 31 32 34 36 36 34 33 31 30 29 26 27
40 41 42 40 37 39 37 45 50 47 44 44 39 36 34 34 34 34 32 29 29 29 28 30 28 30 33 30 31 32 34 36 36 38 39 38 36 36 32 31 29 28 28
36 40 41 42 41 40 41 43 44 41 42 42 38 37 31 26 23 27 31 34 35 35 32 28 36 37 36 35 35 36 39 40 42 42 44 42 38 30 33 31 28 29 29
19 44 32 41 37 39 43 43 45 41 32 36 40 37 34 30 27 31 38 36 35 37 35 37 38 37 37 36 37 38 42 43 45 47 46 37 34 34 31 29 29 31 30
17 25 29 23 37 40 36 37 42 39 35 32 37 31 35 45 37 46 62 48 48 44 37 35 35 38 40 38 38 41 43 45 48 45 33 34 33 31 29 30 31 32 31
16 20 21 23 26 28 31 22 34 34 28 28 27 34 42 46 49 49 50 52 48 44 40 39 42 39 41 38 38 41 45 42 34 33 32 31 30 32 33 31 31 31 31
22 18 18 24 22 25 32 33 34 30 46 52 51 57 50 51 45 36 40 45 43 35 35 34 33 39 41 40 38 33 33 30 34 33 31 32 32 31 32 33 33 35 32
25 22 22 19 19 13 23 24 23 22 22 25 29 31 30 31 31 36 42 37 31 33 30 35 34 32 31 30 31 30 33 36 35 32 32 32 32 32 34 36 37 36 36
27 25 25 26 26 27 29 30 22 20 22 25 29 30 31 31 30 30 32 30 36 36 36 34 36 38 31 35 37 36 35 35 34 33 34 34 36 38 35 34 35 36 38
Wind_Direction
221 224 224 223 223 227 230 232 229 230 227 244 250 246 242 246 236 236 237 224 208 199 195 202 190 188 194 206 189 191 217 269 277 303 315 318 325 327 326 324 325 324 324
219 225 224 226 224 224 232 232 234 232 232 229 245 240 247 247 243 239 245 250 223 220 216 213 205 211 217 225 237 248 259 273 281 288 296 304 311 311 311 320 322 324 329
216 224 223 224 225 226 227 233 233 235 235 233 234 243 242 248 247 243 240 249 247 233 230 230 228 226 230 239 247 256 266 273 283 292 297 301 308 315 314 320 323 325 332
216 219 226 224 228 228 228 231 233 233 236 237 236 240 245 245 247 247 242 245 252 248 242 241 240 242 241 245 252 257 264 275 285 294 301 306 305 311 318 318 317 322 322
219 218 219 222 225 228 230 230 234 234 234 236 237 239 241 244 244 246 246 246 252 255 253 250 248 249 250 254 258 263 268 273 279 284 290 294 305 310 308 307 309 315 320
221 220 221 221 220 227 230 231 230 235 235 234 235 236 238 242 246 247 245 249 251 252 254 256 254 254 253 255 259 263 268 274 278 283 287 291 300 299 303 307 312 316 320
223 220 221 226 227 227 228 230 234 230 234 235 236 237 238 239 243 247 248 246 251 254 252 254 257 258 261 258 259 262 265 270 276 279 282 289 291 299 299 305 312 316 315
222 226 224 226 229 228 228 230 233 234 231 235 236 238 241 240 239 245 250 251 251 252 253 254 258 258 261 262 259 257 260 264 271 276 282 289 291 297 302 308 309 310 315
229 227 229 228 228 228 230 231 233 236 235 235 236 236 240 241 241 241 247 252 253 253 256 257 256 256 255 262 265 261 260 260 262 268 273 276 285 295 306 310 312 313 319
230 231 230 230 231 231 225 229 232 237 237 238 240 240 241 242 243 242 242 249 253 255 255 255 256 256 254 250 253 259 260 266 272 273 277 286 294 301 305 305 308 313 313
237 232 236 231 231 232 225 224 219 227 233 235 236 238 239 240 240 240 242 244 248 253 254 254 253 253 251 247 248 251 261 270 273 276 283 290 296 300 304 307 309 310 310
237 232 233 231 231 228 233 227 226 222 227 236 236 236 236 236 237 240 238 243 244 249 254 252 251 246 237 242 248 256 265 271 275 283 288 293 296 299 302 306 306 309 305
237 237 232 234 234 235 229 233 228 228 229 233 239 238 242 240 240 239 240 241 243 246 249 252 249 243 242 242 247 254 261 269 277 282 287 292 294 300 301 304 304 305 303
233 236 238 239 235 235 229 231 231 231 232 235 239 247 245 251 253 243 241 243 243 244 248 250 250 248 248 252 255 262 271 276 280 282 287 290 296 298 302 304 306 303 303
235 234 237 240 239 238 231 230 234 233 235 240 250 248 254 252 250 254 250 239 244 246 247 250 251 253 252 254 262 271 277 277 279 284 288 292 295 298 302 303 301 299 298
238 235 237 239 239 235 233 230 232 231 234 237 239 240 242 247 247 246 248 249 236 238 246 251 253 256 258 263 268 269 269 279 286 290 293 296 295 295 298 299 296 297 296
235 235 236 239 238 234 234 230 230 228 228 235 234 237 245 247 245 244 248 248 253 248 244 248 252 253 254 255 258 265 270 278 287 293 294 292 291 291 292 290 292 291 289
232 232 230 236 235 229 228 223 223 221 225 230 232 233 237 244 247 250 248 241 245 250 253 253 257 258 256 260 263 264 272 277 283 288 293 292 286 286 282 286 288 286 286
220 222 218 219 219 216 234 216 217 215 219 227 230 235 237 239 245 245 244 244 250 254 258 265 266 266 268 264 263 267 272 277 283 286 291 291 284 283 280 284 281 282 288
213 207 206 205 207 212 213 216 217 219 221 225 229 225 226 222 231 242 255 256 256 253 245 247 234 265 265 268 267 271 274 278 282 282 285 286 285 279 284 279 278 284 290
170 203 211 208 207 210 211 210 212 213 208 215 229 232 227 227 238 256 252 262 261 250 247 245 252 261 264 263 268 272 275 278 282 281 285 266 276 277 279 277 281 284 286
196 196 196 204 218 213 219 221 217 197 195 211 238 234 265 252 239 246 258 257 261 263 259 257 256 257 260 265 266 269 273 275 274 279 274 279 283 277 273 275 281 284 285
198 214 202 195 197 196 222 204 208 213 228 221 238 242 263 244 248 250 257 255 242 254 259 260 259 256 255 259 259 263 269 276 277 273 272 273 277 280 279 280 282 283 284
196 206 216 223 221 228 235 245 257 266 258 244 254 253 248 245 246 241 245 234 248 251 253 254 250 249 254 263 270 272 273 268 270 272 274 275 276 278 280 282 283 279 275
206 208 226 241 238 242 238 240 245 238 222 231 247 251 254 257 256 250 248 253 252 258 252 257 262 261 265 264 266 260 263 267 270 270 271 272 272 271 269 271 274 283 289
228 221 215 221 233 239 249 255 252 241 236 238 247 252 254 257 251 249 258 244 253 251 254 252 250 262 258 263 262 263 265 268 271 273 274 272 271 271 276 280 281 280 277